[[{"header":{"parameterUnit":"m.s-1","parameterCategory":2,"la1":30.2991,"la2":30.254,"lo1":-89.0895,"lo2":-89.0444,"dy":0.0017,"dx":0.0017,"nx":28,"ny":28,"refTime":"2024-08-19T09:00:00:Z","depth":"0","parameterNumber":2,"parameterNumberName":"U-component_of_CURRENTS"},"data":[0,0,0,0,0,0,0,0,0,0,0,0,0,0,0,0,0,0,0,0,0,0,0,0,0,0,0,0,0,0,0,0,0,0,0,0,0,0,0,0,0,0,0,0,0,0,0,0,0,0,0,0,0,0,0,0,0,0,-0.2565,-0.2566,0,-0.2645,-0.2646,-0.2646,-0.2613,-0.2611,-0.2609,-0.2608,-0.272,-0.2724,-0.2729,0,0,0,0,0,0,0,0,0,0,0,0,0,-0.2444,-0.2445,-0.2565,-0.2566,-0.2567,-0.2645,-0.2646,-0.2646,-0.2613,-0.2611,-0.2609,-0.2607,-0.2719,-0.2724,-0.2729,0,0,0,0,0,0,0,0,0,0,0,0,0,-0.2504,-0.2446,-0.2565,-0.2562,-0.2563,-0.2645,-0.2646,-0.2647,-0.2613,-0.2611,-0.2608,-0.2606,-0.2717,-0.2723,-0.273,-0.2821,0,0,-0.2751,-0.2754,0,0,0,0,0,0,0,0,-0.2501,-0.2508,-0.2561,-0.2563,-0.2564,-0.2619,-0.2644,-0.2708,-0.2614,-0.2591,-0.2608,-0.2605,-0.2693,-0.2702,-0.2717,-0.2827,-0.2831,-0.2751,-0.2755,-0.2758,-0.276,0,0,0,0,0,0,0,-0.2497,-0.2505,-0.2594,-0.2563,-0.2565,-0.2578,-0.2583,-0.2656,-0.2653,-0.2593,-0.2592,-0.2606,-0.2693,-0.2711,-0.272,-0.2833,-0.2751,-0.2757,-0.2761,-0.2764,-0.3005,-0.3007,0,0,0,0,0,0,-0.2493,-0.2501,-0.2591,-0.2596,-0.2529,-0.2582,-0.2588,-0.2601,-0.2652,-0.2658,-0.2608,-0.2604,-0.27,-0.2712,-0.2724,-0.2803,-0.2758,-0.2765,-0.2769,-0.3003,-0.3006,-0.3008,0,0,0,0,0,0,-0.249,-0.25,-0.2588,-0.2553,-0.2565,-0.2587,-0.2602,-0.2604,-0.2614,-0.2663,-0.2668,-0.2614,-0.2699,-0.2714,-0.2808,-0.2808,-0.2768,-0.2774,-0.3,-0.3004,-0.3007,-0.2984,0,0,0,0,0,0,-0.2486,-0.2499,-0.2509,-0.2553,-0.2567,-0.2641,-0.2605,-0.2608,-0.2628,-0.2624,-0.2672,-0.2679,-0.2698,-0.2798,-0.2814,-0.2817,-0.2779,-0.2997,-0.3002,-0.3006,-0.2981,-0.2986,-0.299,0,0,0,0,0,-0.2481,-0.2511,-0.2509,-0.2521,-0.258,-0.2643,-0.2652,-0.2656,-0.2631,-0.2651,-0.2693,-0.2677,-0.2835,-0.2807,-0.2826,-0.2829,-0.2995,-0.3,-0.3005,-0.298,-0.2985,-0.299,0,0,0,0,0,0,-0.2462,-0.2512,-0.2511,-0.2552,-0.2594,-0.2638,-0.2661,-0.2663,-0.271,-0.2702,-0.2731,-0.2746,-0.2825,-0.2851,-0.2817,-0.2916,-0.2904,-0.2914,-0.2878,-0.2884,-0.2888,-0.2825,-0.2785,0,0,0,0,0,-0.2466,-0.2495,-0.2546,-0.2577,-0.26,-0.263,-0.2654,-0.266,-0.2707,-0.2721,-0.2758,-0.2804,-0.2867,-0.2891,-0.2957,-0.3026,-0.3025,-0.3037,-0.3041,-0.3044,-0.3009,-0.3042,-0.3043,-0.3025,-0.3025,-0.3025,0,0,-0.2464,-0.2497,-0.2511,-0.2575,-0.2603,-0.2643,-0.2637,-0.2679,-0.2697,-0.2734,-0.2779,-0.2837,-0.2897,-0.2966,-0.2999,-0.298,-0.3056,-0.305,-0.3052,-0.3015,-0.3047,-0.3048,-0.3049,-0.3029,-0.3028,-0.3028,0,0,-0.2481,-0.2508,-0.2538,-0.2579,-0.2633,-0.2657,-0.2669,-0.2721,-0.2726,-0.28,-0.2821,-0.2876,-0.2977,-0.3,-0.3028,-0.3102,-0.309,-0.3128,-0.3079,-0.3113,-0.3112,-0.3112,-0.3126,-0.3127,-0.3112,-0.3112,-0.3111,0,-0.2472,-0.2514,-0.2558,-0.2602,-0.2626,-0.266,-0.2691,-0.2721,-0.2791,-0.2804,-0.2811,-0.2936,-0.298,-0.3039,-0.3048,-0.3102,-0.3117,-0.3048,-0.3112,-0.3112,-0.3112,-0.3126,-0.3127,-0.3111,-0.3111,-0.3111,-0.3111,0,-0.2512,-0.2545,-0.2571,-0.2624,-0.2663,-0.27,-0.2745,-0.2779,-0.2792,-0.2812,-0.2881,-0.2951,-0.3003,-0.3036,-0.3057,-0.3085,-0.3096,-0.3123,-0.3082,-0.3111,-0.3126,-0.3128,-0.311,-0.3111,-0.3111,-0.3111,0,0,-0.2475,-0.2576,-0.2576,-0.2603,-0.2671,-0.2707,-0.2745,-0.2787,-0.2806,-0.2857,-0.2883,-0.2958,-0.2967,-0.2999,-0.3039,-0.305,-0.3066,-0.3068,-0.307,-0.3049,-0.3126,-0.2975,-0.2963,-0.3106,-0.3106,-0.3106,-0.3138,0,-0.2479,-0.2548,-0.2596,-0.2645,-0.2681,-0.2726,-0.2763,-0.2804,-0.2839,-0.2885,-0.2914,-0.2973,-0.2962,-0.2995,-0.2999,-0.3077,-0.3068,-0.3053,-0.3127,-0.3128,-0.2964,-0.2959,-0.2801,-0.2802,-0.314,-0.314,-0.314,0,-0.2483,-0.2529,-0.2577,-0.2654,-0.2673,-0.2704,-0.2756,-0.2798,-0.2859,-0.2887,-0.2914,-0.2957,-0.2983,-0.2982,-0.3036,-0.303,-0.3047,-0.3085,-0.3089,-0.2942,-0.2978,-0.283,-0.2792,-0.2761,-0.3143,-0.3143,-0.3142,0,-0.242,-0.2508,-0.2538,-0.2566,-0.2663,-0.268,-0.272,-0.2783,-0.2815,-0.2881,-0.2912,-0.2956,-0.2987,-0.3018,-0.3047,-0.3057,-0.3106,-0.3147,-0.3019,-0.301,-0.288,-0.2857,-0.2781,-0.315,-0.315,-0.315,-0.315,0,-0.2396,-0.2419,-0.2511,-0.2531,-0.2566,-0.2642,-0.2678,-0.273,-0.2799,-0.2824,-0.2893,-0.2912,-0.2994,-0.3027,-0.3054,-0.3013,-0.3104,-0.2978,-0.2994,-0.287,-0.2847,-0.2817,-0.2853,-0.3151,-0.3151,-0.3151,-0.3151,0,-0.232,-0.2384,-0.2429,-0.2517,-0.2539,-0.256,-0.2639,-0.266,-0.2745,-0.2783,-0.2799,-0.2884,-0.2902,-0.2963,-0.3031,-0.2999,-0.294,-0.2972,-0.2798,-0.2787,-0.2595,-0.2637,-0.2563,-0.2494,-0.2831,-0.2827,-0.2824,0,-0.2288,-0.2302,-0.2391,-0.2398,-0.2431,-0.2476,-0.2493,-0.2601,-0.2622,-0.2739,-0.2736,-0.279,-0.2772,-0.2805,-0.2767,-0.2759,-0.279,-0.2616,-0.2576,-0.2514,-0.2578,-0.2616,-0.2568,-0.2428,-0.2422,-0.2417,-0.2413,0,-0.2204,-0.2235,-0.2262,-0.2291,-0.2308,-0.2345,-0.2382,-0.2405,-0.2517,-0.2557,-0.2593,-0.2604,-0.2592,-0.249,-0.2459,-0.2443,-0.251,-0.2505,-0.2508,-0.2271,-0.2246,-0.2209,-0.2487,-0.2368,-0.2373,-0.2376,-0.2378,-0.238,-0.2111,-0.2111,-0.2141,-0.2154,-0.2175,-0.2183,-0.2157,-0.2213,-0.2241,-0.2261,-0.2369,-0.2341,-0.23,-0.2201,-0.2165,-0.2029,-0.215,-0.1997,-0.2064,-0.2117,-0.1986,-0.212,-0.1971,-0.1973,-0.1975,-0.1977,-0.1978,0,-0.1989,-0.1992,-0.1995,-0.2004,-0.1962,-0.203,-0.2042,-0.199,-0.1958,-0.2028,-0.2023,-0.2012,-0.1877,-0.1864,-0.1738,-0.165,-0.1639,-0.1637,-0.1686,-0.1667,-0.1832,-0.1744,-0.1455,-0.1455,-0.1455,-0.1455,-0.1455,-0.1455,-0.1919,-0.1875,-0.1883,-0.1778,-0.177,-0.1669,-0.1642,-0.1601,-0.1614,-0.1586,-0.1608,-0.1689,-0.1695,-0.1741,-0.1583,-0.149,-0.1493,-0.1412,-0.1496,-0.1648,-0.1689,-0.1728,-0.165,-0.1346,-0.1347,-0.1241,-0.124,-0.124]},{"header":{"parameterUnit":"m.s-1","parameterCategory":2,"la1":30.2991,"la2":30.254,"lo1":-89.0895,"lo2":-89.0444,"dy":0.0017,"dx":0.0017,"nx":28,"ny":28,"refTime":"2024-08-19T09:00:00:Z","depth":"0","parameterNumber":3,"parameterNumberName":"V-component_of_CURRENTS"},"data":[0,0,0,0,0,0,0,0,0,0,0,0,0,0,0,0,0,0,0,0,0,0,0,0,0,0,0,0,0,0,0,0,0,0,0,0,0,0,0,0,0,0,0,0,0,0,0,0,0,0,0,0,0,0,0,0,0,0,-0.0242,-0.0241,0,-0.018,-0.0179,-0.0178,-0.0118,-0.0117,-0.0117,-0.0116,0.0018,0.0021,0.0023,0,0,0,0,0,0,0,0,0,0,0,0,0,-0.0272,-0.0272,-0.0242,-0.0241,-0.024,-0.018,-0.0179,-0.0178,-0.0118,-0.0117,-0.0116,-0.0115,0.0017,0.002,0.0024,0,0,0,0,0,0,0,0,0,0,0,0,0,-0.024,-0.0272,-0.0242,-0.0203,-0.0198,-0.018,-0.0179,-0.0178,-0.0119,-0.0117,-0.0116,-0.0115,0.0016,0.002,0.0024,0.0025,0,0,0.0037,0.0039,0,0,0,0,0,0,0,0,-0.0242,-0.0239,-0.0209,-0.0205,-0.02,-0.0155,-0.0141,-0.0106,-0.0119,-0.0149,-0.0116,-0.0114,-0.0034,-0.0025,-0.0018,0.0032,0.0037,0.0037,0.004,0.0042,0.0043,0,0,0,0,0,0,0,-0.0244,-0.0241,-0.0218,-0.0208,-0.0203,-0.0176,-0.017,-0.0134,-0.0098,-0.0147,-0.0142,-0.0135,-0.0031,-0.0023,-0.0014,0.0039,0.0037,0.0041,0.0044,0.0045,0.0148,0.0148,0,0,0,0,0,0,-0.0254,-0.0244,-0.022,-0.0216,-0.0218,-0.0176,-0.017,-0.0171,-0.01,-0.0089,-0.0136,-0.0132,-0.003,-0.0019,-0.0009,0.0014,0.0042,0.0046,0.0048,0.0148,0.0148,0.0148,0,0,0,0,0,0,-0.0255,-0.0253,-0.0222,-0.0227,-0.0221,-0.0177,-0.0179,-0.0171,-0.0158,-0.0093,-0.0079,-0.0131,-0.0029,-0.0015,0.0025,0.0019,0.0047,0.0051,0.0147,0.0148,0.0148,0.0049,0,0,0,0,0,0,-0.0257,-0.0254,-0.026,-0.0228,-0.0221,-0.0221,-0.018,-0.017,-0.0155,-0.0149,-0.0084,-0.007,-0.0027,0.0019,0.0029,0.0025,0.0055,0.0147,0.0148,0.0148,0.0052,0.0046,0.0041,0,0,0,0,0,-0.0258,-0.0278,-0.0261,-0.0257,-0.023,-0.0222,-0.0217,-0.018,-0.0156,-0.0162,-0.0109,-0.0072,0.003,0.0021,0.0034,0.0031,0.0147,0.0147,0.0148,0.0055,0.0047,0.0041,0,0,0,0,0,0,-0.0296,-0.0272,-0.0253,-0.0264,-0.0246,-0.0212,-0.0213,-0.0187,-0.0152,-0.0142,-0.0076,-0.006,-0.0022,0.0018,0.0008,0.0066,0.0097,0.01,0.0022,0.0016,0.001,-0.0005,0.0058,0,0,0,0,0,-0.0308,-0.0313,-0.0285,-0.0293,-0.0288,-0.025,-0.0241,-0.0219,-0.0184,-0.0167,-0.0122,-0.0064,-0.0013,0.0011,0.0059,0.0081,0.011,0.0092,0.0086,0.0081,0.0079,0.01,0.0095,0.015,0.015,0.015,0,0,-0.0323,-0.0311,-0.0312,-0.0301,-0.0283,-0.029,-0.0243,-0.0238,-0.0234,-0.0158,-0.014,-0.0084,-0.0009,0.0021,0.0041,0.0053,0.0081,0.0081,0.0076,0.0078,0.01,0.0094,0.0089,0.015,0.015,0.015,0,0,-0.0367,-0.0349,-0.0371,-0.0362,-0.0344,-0.0322,-0.0324,-0.0294,-0.027,-0.0248,-0.0182,-0.0134,-0.0071,-0.0018,0.0019,0.0012,0.0053,0.0031,-0.0016,0.0003,-0.0002,-0.0006,0.0018,0.0017,0.0024,0.0023,0.0023,0,-0.0386,-0.0408,-0.0376,-0.0397,-0.0395,-0.0342,-0.0366,-0.0337,-0.0297,-0.0276,-0.0254,-0.0149,-0.0088,-0.0036,-0.0032,-0.0003,0.0014,-0.0003,-0.0008,-0.0011,-0.0013,0.0012,0.0012,0.0019,0.0019,0.002,0.002,0,-0.0447,-0.0461,-0.0475,-0.048,-0.0476,-0.0487,-0.0448,-0.0431,-0.0393,-0.0358,-0.0305,-0.0227,-0.0163,-0.0134,-0.0083,-0.0062,-0.0042,-0.002,-0.0001,-0.0026,0.0004,0.0006,0.0012,0.0014,0.0015,0.0016,0,0,-0.0501,-0.0515,-0.0522,-0.0536,-0.0519,-0.0526,-0.0514,-0.0487,-0.0476,-0.0424,-0.0408,-0.031,-0.0263,-0.0216,-0.0148,-0.0125,-0.0122,-0.0087,-0.0084,-0.0082,-0.0084,0.0015,0.0027,-0.0112,-0.0112,-0.0112,-0.0059,0,-0.0557,-0.0618,-0.0603,-0.0649,-0.0674,-0.0622,-0.0621,-0.0586,-0.0535,-0.0507,-0.0414,-0.037,-0.0295,-0.0268,-0.0232,-0.0145,-0.0121,-0.0138,-0.0043,-0.004,0.0036,0.0032,0.0072,0.0131,-0.0057,-0.0057,-0.0057,0,-0.0624,-0.0655,-0.0715,-0.0733,-0.074,-0.0752,-0.0731,-0.0717,-0.0647,-0.0611,-0.0545,-0.0473,-0.0401,-0.0349,-0.0232,-0.0252,-0.0175,-0.0114,-0.0111,0.0019,0.0063,0.013,0.0142,0.0303,-0.0053,-0.0054,-0.0054,0,-0.0686,-0.0731,-0.0781,-0.0788,-0.08,-0.0806,-0.08,-0.0748,-0.074,-0.0669,-0.0661,-0.0562,-0.0519,-0.0418,-0.0256,-0.0261,-0.0134,-0.0128,0.0034,0.0041,0.0118,0.0134,0.0285,-0.0059,-0.0059,-0.006,-0.006,0,-0.0753,-0.0792,-0.0814,-0.0843,-0.09,-0.0873,-0.09,-0.0871,-0.0835,-0.0838,-0.0719,-0.0696,-0.0539,-0.043,-0.0295,-0.0107,-0.0161,0.0031,0.0064,0.0088,0.0099,0.0279,0.0339,-0.0058,-0.0058,-0.0058,-0.0059,0,-0.0815,-0.0826,-0.0888,-0.0919,-0.0932,-0.0968,-0.0984,-0.0994,-0.0947,-0.0947,-0.0935,-0.0812,-0.0659,-0.047,-0.0294,-0.0152,0.0124,0.0094,0.0124,0.0161,0.0458,0.0509,0.0692,0.079,0.0255,0.0258,0.026,0,-0.0853,-0.0891,-0.0956,-0.0995,-0.1011,-0.1052,-0.1081,-0.1056,-0.1062,-0.1011,-0.1019,-0.0874,-0.074,-0.0413,-0.0141,0.0127,0.0241,0.0316,0.0327,0.0495,0.0575,0.0603,0.0672,0.0379,0.0382,0.0385,0.0387,0,-0.0921,-0.094,-0.099,-0.1079,-0.1126,-0.118,-0.121,-0.1238,-0.1203,-0.1186,-0.112,-0.1005,-0.0659,-0.0309,0.0074,0.0228,0.0448,0.0379,0.0535,0.0682,0.0737,0.084,0.0325,0.041,0.0408,0.0406,0.0405,0.0404,-0.0961,-0.1017,-0.1081,-0.116,-0.122,-0.1284,-0.1315,-0.1324,-0.1334,-0.1263,-0.1171,-0.0941,-0.0439,0.0119,0.0312,0.0725,0.0659,0.0828,0.0872,0.0882,0.1003,0.0557,0.0699,0.0698,0.0697,0.0697,0.0697,0,-0.101,-0.1071,-0.1156,-0.1247,-0.1319,-0.1331,-0.1384,-0.1378,-0.1367,-0.1239,-0.1113,-0.0564,-0.0056,0.0402,0.0984,0.1205,0.1231,0.1292,0.1323,0.1367,0.0959,0.0994,0.1229,0.1229,0.1228,0.1228,0.1228,0.1228,-0.1036,-0.1127,-0.1176,-0.1304,-0.1362,-0.1422,-0.144,-0.1405,-0.1302,-0.1021,-0.071,-0.0455,0.0186,0.1075,0.1589,0.1623,0.1793,0.1772,0.1867,0.157,0.1529,0.149,0.154,0.1885,0.1886,0.2257,0.226,0.2263]}],[{"header":{"parameterUnit":"m.s-1","parameterCategory":2,"la1":30.2991,"la2":30.254,"lo1":-89.0895,"lo2":-89.0444,"dy":0.0017,"dx":0.0017,"nx":28,"ny":28,"refTime":"2024-08-19T09:00:00:Z","depth":"2","parameterNumber":2,"parameterNumberName":"U-component_of_CURRENTS"},"data":[0,0,0,0,0,0,0,0,0,0,0,0,0,0,0,0,0,0,0,0,0,0,0,0,0,0,0,0,0,0,0,0,0,0,0,0,0,0,0,0,0,0,0,0,0,0,0,0,0,0,0,0,0,0,0,0,0,0,-0.234,-0.2341,0,-0.2414,-0.2415,-0.2415,-0.2388,-0.2387,-0.2385,-0.2384,-0.2451,-0.2454,-0.2457,0,0,0,0,0,0,0,0,0,0,0,0,0,-0.2223,-0.2225,-0.234,-0.2341,-0.2343,-0.2414,-0.2415,-0.2416,-0.2388,-0.2387,-0.2385,-0.2383,-0.245,-0.2454,-0.2457,0,0,0,0,0,0,0,0,0,0,0,0,0,-0.228,-0.2225,-0.234,-0.234,-0.2341,-0.2414,-0.2415,-0.2416,-0.2389,-0.2387,-0.2385,-0.2383,-0.2449,-0.2453,-0.2458,-0.2527,0,0,-0.2472,-0.2474,0,0,0,0,0,0,0,0,-0.2276,-0.2283,-0.2339,-0.234,-0.2342,-0.2393,-0.2398,-0.2454,-0.2389,-0.2367,-0.2384,-0.2382,-0.2435,-0.2441,-0.2454,-0.253,-0.2533,-0.2472,-0.2475,-0.2477,-0.2478,0,0,0,0,0,0,0,-0.2272,-0.2281,-0.2366,-0.2341,-0.2342,-0.2353,-0.2358,-0.2409,-0.2409,-0.2369,-0.2368,-0.2382,-0.2435,-0.245,-0.2456,-0.2534,-0.2472,-0.2476,-0.2479,-0.2481,-0.2685,-0.2687,0,0,0,0,0,0,-0.2271,-0.2277,-0.2364,-0.2369,-0.2307,-0.2357,-0.2363,-0.2376,-0.2408,-0.2412,-0.2384,-0.2381,-0.2443,-0.245,-0.2458,-0.2515,-0.2477,-0.2481,-0.2484,-0.2682,-0.2685,-0.2688,0,0,0,0,0,0,-0.2268,-0.2278,-0.2361,-0.2327,-0.2339,-0.2361,-0.2376,-0.2378,-0.2389,-0.2421,-0.2423,-0.2392,-0.2442,-0.2451,-0.2505,-0.2518,-0.2484,-0.2488,-0.2679,-0.2683,-0.2687,-0.2647,0,0,0,0,0,0,-0.2264,-0.2276,-0.2286,-0.2327,-0.2341,-0.241,-0.2379,-0.2381,-0.2403,-0.2399,-0.243,-0.2433,-0.2441,-0.2498,-0.2509,-0.2524,-0.2491,-0.2676,-0.2681,-0.2686,-0.2645,-0.2649,-0.2653,0,0,0,0,0,-0.226,-0.2286,-0.2286,-0.2297,-0.2353,-0.2412,-0.242,-0.2426,-0.2406,-0.2424,-0.2439,-0.2432,-0.2538,-0.2504,-0.2517,-0.2532,-0.2673,-0.2679,-0.2685,-0.2643,-0.2648,-0.2653,0,0,0,0,0,0,-0.2239,-0.2287,-0.2288,-0.2326,-0.2367,-0.2408,-0.2429,-0.2433,-0.2461,-0.2452,-0.2464,-0.2472,-0.253,-0.2553,-0.2515,-0.2614,-0.2607,-0.2616,-0.2571,-0.2576,-0.258,-0.2537,-0.2495,0,0,0,0,0,-0.2242,-0.2269,-0.2319,-0.2348,-0.237,-0.2399,-0.2422,-0.243,-0.2462,-0.247,-0.2492,-0.2526,-0.2571,-0.2585,-0.2637,-0.2687,-0.2681,-0.2713,-0.2717,-0.2719,-0.2699,-0.2694,-0.2692,-0.2708,-0.2708,-0.2708,0,0,-0.2241,-0.2272,-0.2285,-0.2345,-0.2372,-0.2411,-0.2407,-0.2448,-0.2467,-0.2478,-0.2511,-0.2549,-0.2594,-0.2646,-0.2673,-0.2657,-0.2722,-0.2727,-0.2728,-0.2705,-0.2699,-0.2697,-0.2694,-0.2712,-0.2711,-0.2711,0,0,-0.2255,-0.2282,-0.2309,-0.2348,-0.2401,-0.2425,-0.2437,-0.2486,-0.2492,-0.2544,-0.2553,-0.2585,-0.2666,-0.2677,-0.2697,-0.2761,-0.2753,-0.2801,-0.2765,-0.2761,-0.2757,-0.2754,-0.2766,-0.2764,-0.2787,-0.2787,-0.2787,0,-0.2248,-0.2287,-0.2328,-0.2368,-0.2393,-0.2429,-0.246,-0.2488,-0.2543,-0.2552,-0.2554,-0.2643,-0.2671,-0.2707,-0.2719,-0.2761,-0.2767,-0.273,-0.2757,-0.2754,-0.2751,-0.2764,-0.2762,-0.2786,-0.2786,-0.2786,-0.2787,0,-0.2284,-0.2315,-0.2339,-0.239,-0.2429,-0.2466,-0.2511,-0.2543,-0.2556,-0.2575,-0.2623,-0.2658,-0.2696,-0.2723,-0.2732,-0.2743,-0.2759,-0.2766,-0.2723,-0.2745,-0.276,-0.2759,-0.2784,-0.2785,-0.2785,-0.2786,0,0,-0.225,-0.2343,-0.2344,-0.2372,-0.2439,-0.2475,-0.2514,-0.2557,-0.2578,-0.2613,-0.2634,-0.2678,-0.2681,-0.2705,-0.2726,-0.2708,-0.2694,-0.2718,-0.2718,-0.269,-0.2696,-0.2586,-0.2574,-0.2698,-0.2697,-0.2697,-0.2719,0,-0.2254,-0.2319,-0.2363,-0.2415,-0.245,-0.2497,-0.2535,-0.2576,-0.2609,-0.2647,-0.2654,-0.2697,-0.2681,-0.2701,-0.2677,-0.271,-0.2686,-0.2688,-0.2713,-0.2713,-0.2578,-0.2566,-0.237,-0.2362,-0.2718,-0.2718,-0.2718,0,-0.2258,-0.2302,-0.235,-0.2427,-0.2446,-0.2479,-0.2536,-0.2579,-0.2634,-0.2658,-0.2672,-0.27,-0.2697,-0.2683,-0.2676,-0.2681,-0.2672,-0.2676,-0.2678,-0.2576,-0.2598,-0.2399,-0.2345,-0.2715,-0.2715,-0.2715,-0.2716,0,-0.2201,-0.2286,-0.2318,-0.2346,-0.2442,-0.2462,-0.2505,-0.2568,-0.2601,-0.2659,-0.2686,-0.2698,-0.2711,-0.2693,-0.2688,-0.2688,-0.268,-0.2691,-0.2581,-0.2576,-0.241,-0.2389,-0.2658,-0.2658,-0.2658,-0.2658,-0.2657,0,-0.2179,-0.2205,-0.2295,-0.2315,-0.2356,-0.2431,-0.2472,-0.2524,-0.259,-0.2616,-0.2675,-0.2686,-0.2708,-0.2713,-0.2697,-0.2624,-0.2684,-0.2553,-0.2556,-0.2397,-0.2376,-0.2684,-0.2687,-0.2658,-0.2658,-0.2658,-0.2658,0,-0.2109,-0.2171,-0.2218,-0.2307,-0.2331,-0.2357,-0.2442,-0.2466,-0.255,-0.2588,-0.2603,-0.2675,-0.2663,-0.2682,-0.2675,-0.2623,-0.2586,-0.2546,-0.2363,-0.2339,-0.2488,-0.249,-0.2419,-0.2415,-0.2412,-0.2409,-0.2406,0,-0.2079,-0.2094,-0.2186,-0.2199,-0.2233,-0.2285,-0.2308,-0.2416,-0.2441,-0.2556,-0.2553,-0.2593,-0.2563,-0.2532,-0.2457,-0.24,-0.2492,-0.2194,-0.2127,-0.2445,-0.2456,-0.2463,-0.2469,-0.1924,-0.1918,-0.1913,-0.1909,0,-0.2002,-0.2034,-0.2063,-0.2102,-0.2126,-0.2171,-0.2215,-0.224,-0.2353,-0.2389,-0.2418,-0.2417,-0.2381,-0.2214,-0.2153,-0.2097,-0.2184,-0.2084,-0.2458,-0.2001,-0.1974,-0.1987,-0.201,-0.1863,-0.1868,-0.1871,-0.1874,-0.1875,-0.1918,-0.1921,-0.1956,-0.1976,-0.2008,-0.2027,-0.201,-0.2065,-0.2094,-0.2106,-0.2197,-0.2124,-0.211,-0.1884,-0.1788,-0.172,-0.1869,-0.1791,-0.1808,-0.183,-0.1755,-0.1721,-0.1551,-0.1554,-0.1556,-0.1558,-0.156,0,-0.1807,-0.1815,-0.1824,-0.1846,-0.1819,-0.1889,-0.1911,-0.1868,-0.1836,-0.1865,-0.1842,-0.1661,-0.1529,-0.1529,-0.1337,-0.1296,-0.1304,-0.1247,-0.1258,-0.1303,-0.1343,-0.1244,-0.0904,-0.0902,-0.0901,-0.0899,0,0,-0.1745,-0.1709,-0.1718,-0.164,-0.1645,-0.157,-0.1551,-0.1515,-0.1504,-0.1434,-0.1381,-0.1449,-0.1484,-0.1201,-0.1126,-0.0981,-0.1138,-0.0931,-0.1455,-0.1513,-0.1551,-0.1651,-0.1548,0,0,0,0,0]},{"header":{"parameterUnit":"m.s-1","parameterCategory":2,"la1":30.2991,"la2":30.254,"lo1":-89.0895,"lo2":-89.0444,"dy":0.0017,"dx":0.0017,"nx":28,"ny":28,"refTime":"2024-08-19T09:00:00:Z","depth":"2","parameterNumber":3,"parameterNumberName":"V-component_of_CURRENTS"},"data":[0,0,0,0,0,0,0,0,0,0,0,0,0,0,0,0,0,0,0,0,0,0,0,0,0,0,0,0,0,0,0,0,0,0,0,0,0,0,0,0,0,0,0,0,0,0,0,0,0,0,0,0,0,0,0,0,0,0,-0.0156,-0.0156,0,-0.0102,-0.0101,-0.01,-0.0045,-0.0044,-0.0043,-0.0043,0.0078,0.0081,0.0083,0,0,0,0,0,0,0,0,0,0,0,0,0,-0.0179,-0.0179,-0.0157,-0.0156,-0.0155,-0.0102,-0.0101,-0.01,-0.0045,-0.0044,-0.0043,-0.0042,0.0077,0.008,0.0083,0,0,0,0,0,0,0,0,0,0,0,0,0,-0.0152,-0.0179,-0.0157,-0.0121,-0.0117,-0.0102,-0.0101,-0.01,-0.0045,-0.0044,-0.0043,-0.0042,0.0076,0.008,0.0084,0.0082,0,0,0.0095,0.0097,0,0,0,0,0,0,0,0,-0.0154,-0.0151,-0.0127,-0.0123,-0.0119,-0.0078,-0.0064,-0.0036,-0.0046,-0.0073,-0.0043,-0.0041,0.0032,0.0039,0.0045,0.0088,0.0093,0.0095,0.0098,0.0099,0.01,0,0,0,0,0,0,0,-0.0156,-0.0153,-0.0136,-0.0126,-0.0121,-0.0095,-0.009,-0.0059,-0.0028,-0.0071,-0.0066,-0.006,0.0034,0.0041,0.0048,0.0095,0.0095,0.0098,0.0101,0.0102,0.0182,0.0182,0,0,0,0,0,0,-0.0164,-0.0155,-0.0137,-0.0134,-0.0133,-0.0096,-0.009,-0.0093,-0.0029,-0.0019,-0.0061,-0.0057,0.0034,0.0044,0.0053,0.007,0.0099,0.0103,0.0105,0.0182,0.0182,0.0182,0,0,0,0,0,0,-0.0165,-0.0164,-0.0139,-0.0142,-0.0137,-0.0097,-0.01,-0.0093,-0.0081,-0.0022,-0.001,-0.0056,0.0035,0.0048,0.0079,0.0075,0.0104,0.0108,0.0182,0.0182,0.0182,0.0095,0,0,0,0,0,0,-0.0166,-0.0164,-0.0169,-0.0143,-0.0137,-0.014,-0.0101,-0.0092,-0.0078,-0.0073,-0.0014,-0.0002,0.0037,0.0073,0.0083,0.008,0.011,0.0182,0.0182,0.0182,0.0098,0.0092,0.0087,0,0,0,0,0,-0.0167,-0.0187,-0.017,-0.0167,-0.0145,-0.0141,-0.0137,-0.0103,-0.008,-0.0086,-0.0041,-0.0004,0.0079,0.0075,0.0087,0.0085,0.0182,0.0182,0.0182,0.01,0.0093,0.0087,0,0,0,0,0,0,-0.0202,-0.0182,-0.0163,-0.0175,-0.0161,-0.0132,-0.0134,-0.0109,-0.0081,-0.0071,-0.0011,0.0003,0.0031,0.0069,0.0063,0.011,0.014,0.0142,0.0074,0.0067,0.0062,0.0052,0.0114,0,0,0,0,0,-0.0212,-0.0218,-0.0194,-0.0203,-0.0199,-0.0166,-0.0158,-0.0138,-0.0109,-0.0095,-0.0055,-0.0005,0.0036,0.006,0.0097,0.0117,0.016,0.0127,0.0121,0.0116,0.0117,0.0173,0.0173,0.0181,0.0181,0.0181,0,0,-0.0226,-0.0217,-0.0218,-0.021,-0.0195,-0.0203,-0.0159,-0.0157,-0.0155,-0.0086,-0.0073,-0.0028,0.0037,0.006,0.0077,0.0093,0.0135,0.0116,0.0111,0.0115,0.0173,0.0172,0.0172,0.0181,0.0181,0.0181,0,0,-0.027,-0.0253,-0.0274,-0.0268,-0.0252,-0.0233,-0.0235,-0.0211,-0.0189,-0.0175,-0.0117,-0.0076,-0.0026,0.0023,0.0055,0.0042,0.01,0.0056,0.0022,0.0075,0.0075,0.0075,0.0117,0.0122,0.0055,0.0055,0.0055,0,-0.0287,-0.0308,-0.0281,-0.0301,-0.0299,-0.0251,-0.0274,-0.0251,-0.0218,-0.0197,-0.0181,-0.009,-0.0041,0.001,0.0006,0.003,0.0065,0.0038,0.0067,0.0068,0.007,0.0113,0.0119,0.0051,0.0051,0.0052,0.0052,0,-0.0346,-0.0359,-0.0373,-0.0378,-0.0376,-0.0388,-0.0353,-0.0339,-0.0306,-0.0273,-0.0224,-0.0159,-0.01,-0.0079,-0.0041,-0.0,0.0021,0.0048,0.0079,0.0063,0.011,0.0118,0.0045,0.0046,0.0048,0.0049,0,0,-0.0398,-0.0411,-0.0417,-0.0429,-0.0416,-0.0424,-0.0413,-0.0388,-0.0372,-0.0327,-0.0301,-0.0227,-0.0182,-0.0142,-0.0083,-0.0035,0.0002,0.0004,0.0008,0.0035,0.0112,0.015,0.0163,0.0031,0.0032,0.0033,0.0134,0,-0.045,-0.0507,-0.0493,-0.0536,-0.0558,-0.051,-0.051,-0.0476,-0.0427,-0.0391,-0.0302,-0.0261,-0.0207,-0.0181,-0.0124,-0.0026,0.0021,-0.0028,0.0132,0.0136,0.0165,0.0173,0.0144,0.0234,0.0142,0.0144,0.0145,0,-0.0512,-0.0541,-0.0596,-0.061,-0.0615,-0.0628,-0.0601,-0.0589,-0.0513,-0.0476,-0.0405,-0.0336,-0.025,-0.021,-0.0052,-0.0088,0.0001,0.0076,0.0082,0.0156,0.019,0.0239,0.0253,0.0159,0.0158,0.0157,0.0156,0,-0.0569,-0.061,-0.0655,-0.0662,-0.0671,-0.0675,-0.0668,-0.0614,-0.0603,-0.052,-0.0501,-0.0385,-0.033,-0.0202,-0.0044,-0.0049,0.0127,0.0144,0.0264,0.0267,0.0296,0.03,0.0252,0.0251,0.0251,0.0251,0.0251,0,-0.0629,-0.0665,-0.0686,-0.0712,-0.0761,-0.0736,-0.0755,-0.0724,-0.0677,-0.0664,-0.0549,-0.0507,-0.0327,-0.0201,-0.006,0.0131,0.0121,0.0264,0.0301,0.0264,0.0264,0.0244,0.0242,0.0255,0.0254,0.0253,0.0252,0,-0.0686,-0.0697,-0.0752,-0.0779,-0.0791,-0.0822,-0.0832,-0.0835,-0.078,-0.0756,-0.0738,-0.0597,-0.0426,-0.0238,-0.002,0.0109,0.0288,0.0355,0.0295,0.0324,0.0391,0.0383,0.0496,0.0499,0.05,0.0502,0.0503,0,-0.072,-0.0755,-0.0815,-0.0851,-0.0865,-0.0901,-0.0925,-0.0894,-0.0889,-0.0805,-0.0796,-0.0636,-0.0497,-0.0161,0.0082,0.0341,0.0339,0.0462,0.0457,0.0394,0.0419,0.0408,0.0398,0.0454,0.0455,0.0456,0.0457,0,-0.0782,-0.0801,-0.0846,-0.093,-0.0971,-0.1017,-0.1038,-0.1053,-0.1,-0.0955,-0.0853,-0.0731,-0.0415,-0.0119,0.0209,0.0352,0.0419,0.0485,0.0451,0.0395,0.0363,0.0384,0.0374,0.0463,0.0462,0.0462,0.0461,0.0461,-0.082,-0.0872,-0.0932,-0.1005,-0.106,-0.1109,-0.1133,-0.112,-0.11,-0.0994,-0.0885,-0.0659,-0.0396,0.0089,0.031,0.0508,0.0503,0.0566,0.056,0.0555,0.053,0.0503,0.0624,0.0624,0.0625,0.0625,0.0625,0,-0.0866,-0.0924,-0.1002,-0.1086,-0.1152,-0.1162,-0.1192,-0.1172,-0.1123,-0.0974,-0.0826,-0.0514,-0.0176,0.009,0.042,0.0618,0.0586,0.0638,0.0565,0.0558,0.0552,0.0524,0.0618,0.0619,0.0619,0.062,0,0,-0.0891,-0.0977,-0.1021,-0.114,-0.1195,-0.1247,-0.1254,-0.1192,-0.1079,-0.0906,-0.072,-0.0471,-0.0147,0.0089,0.0321,0.0488,0.0469,0.0492,0.0478,0.0357,0.0349,0.0492,0.0441,0,0,0,0,0]}],[{"header":{"parameterUnit":"m.s-1","parameterCategory":2,"la1":30.2991,"la2":30.254,"lo1":-89.0895,"lo2":-89.0444,"dy":0.0017,"dx":0.0017,"nx":28,"ny":28,"refTime":"2024-08-19T09:00:00:Z","depth":"4","parameterNumber":2,"parameterNumberName":"U-component_of_CURRENTS"},"data":[0,0,0,0,0,0,0,0,0,0,0,0,0,0,0,0,0,0,0,0,0,0,0,0,0,0,0,0,0,0,0,0,0,0,0,0,0,0,0,0,0,0,0,0,0,0,0,0,0,0,0,0,0,0,0,0,0,0,-0.1703,-0.1704,0,-0.1806,-0.1807,-0.1808,-0.1847,-0.1847,-0.1847,-0.1847,-0.1813,-0.1813,-0.1812,0,0,0,0,0,0,0,0,0,0,0,0,0,-0.1575,-0.1577,-0.1703,-0.1704,-0.1706,-0.1806,-0.1807,-0.1808,-0.1847,-0.1847,-0.1847,-0.1847,-0.1814,-0.1813,-0.1812,0,0,0,0,0,0,0,0,0,0,0,0,0,-0.1648,-0.1578,-0.1703,-0.1739,-0.1743,-0.1805,-0.1807,-0.1809,-0.1847,-0.1847,-0.1847,-0.1847,-0.1814,-0.1813,-0.1812,-0.1808,0,0,-0.1808,-0.1808,0,0,0,0,0,0,0,0,-0.1643,-0.1652,-0.1732,-0.1737,-0.1742,-0.1815,-0.175,-0.1802,-0.1847,-0.1806,-0.1847,-0.1847,-0.1803,-0.1803,-0.1821,-0.1806,-0.1805,-0.1808,-0.1807,-0.1807,-0.1806,0,0,0,0,0,0,0,-0.1638,-0.1648,-0.1742,-0.1734,-0.174,-0.1762,-0.1772,-0.1761,-0.18,-0.1809,-0.1813,-0.1828,-0.1804,-0.1823,-0.182,-0.1804,-0.1808,-0.1807,-0.1806,-0.1806,-0.1854,-0.1856,0,0,0,0,0,0,-0.1629,-0.1643,-0.1738,-0.1745,-0.1693,-0.1765,-0.1775,-0.179,-0.1803,-0.1807,-0.1828,-0.1829,-0.1825,-0.1822,-0.1819,-0.1863,-0.1807,-0.1806,-0.1805,-0.1852,-0.1855,-0.1857,0,0,0,0,0,0,-0.1625,-0.1636,-0.1734,-0.1698,-0.1712,-0.1767,-0.1784,-0.1792,-0.1838,-0.1819,-0.1819,-0.1867,-0.1824,-0.1821,-0.184,-0.186,-0.1805,-0.1804,-0.185,-0.1853,-0.1856,-0.1918,0,0,0,0,0,0,-0.1621,-0.1634,-0.1658,-0.1697,-0.1714,-0.1791,-0.1784,-0.1795,-0.1846,-0.185,-0.1852,-0.1848,-0.1824,-0.1842,-0.1839,-0.1857,-0.1803,-0.1847,-0.1851,-0.1855,-0.1914,-0.1923,-0.1931,0,0,0,0,0,-0.1616,-0.1645,-0.1658,-0.1671,-0.1739,-0.1793,-0.1805,-0.184,-0.1849,-0.1879,-0.1882,-0.1849,-0.1863,-0.1843,-0.1838,-0.1857,-0.1846,-0.185,-0.1855,-0.191,-0.1921,-0.1931,0,0,0,0,0,0,-0.1606,-0.1654,-0.1668,-0.1712,-0.1758,-0.1801,-0.1838,-0.1859,-0.1891,-0.1895,-0.1872,-0.1869,-0.1889,-0.1874,-0.1852,-0.1886,-0.185,-0.1854,-0.1893,-0.1904,-0.1912,-0.1907,-0.1802,0,0,0,0,0,-0.1613,-0.1647,-0.1694,-0.1733,-0.1758,-0.1803,-0.1835,-0.1861,-0.1888,-0.1905,-0.1911,-0.191,-0.1902,-0.1906,-0.19,-0.1919,-0.1897,-0.1932,-0.194,-0.1948,-0.1944,-0.1927,-0.1933,-0.1872,-0.1872,-0.1871,0,0,-0.1621,-0.1652,-0.1673,-0.1734,-0.1772,-0.1814,-0.1823,-0.1881,-0.1917,-0.1891,-0.1946,-0.1939,-0.1915,-0.1936,-0.1944,-0.1927,-0.1961,-0.1953,-0.1959,-0.1951,-0.1932,-0.1938,-0.1943,-0.1875,-0.1874,-0.1874,0,0,-0.1642,-0.1682,-0.1713,-0.1754,-0.1818,-0.1846,-0.1868,-0.193,-0.1962,-0.2011,-0.1993,-0.2002,-0.2018,-0.1998,-0.1986,-0.2041,-0.2005,-0.2052,-0.2091,-0.2076,-0.208,-0.2083,-0.2089,-0.2092,-0.206,-0.206,-0.206,0,-0.165,-0.1692,-0.1734,-0.1774,-0.1809,-0.1861,-0.19,-0.1943,-0.2006,-0.2027,-0.2038,-0.2059,-0.2039,-0.2036,-0.206,-0.2056,-0.2055,-0.2048,-0.2085,-0.2087,-0.2089,-0.2093,-0.2096,-0.2063,-0.2063,-0.2063,-0.2062,0,-0.1683,-0.1728,-0.1755,-0.1814,-0.186,-0.1908,-0.1963,-0.2018,-0.2062,-0.2093,-0.2131,-0.2122,-0.2127,-0.213,-0.211,-0.2122,-0.212,-0.2092,-0.2051,-0.2098,-0.2101,-0.2103,-0.2068,-0.2067,-0.2066,-0.2065,0,0,-0.166,-0.1757,-0.1766,-0.1804,-0.1885,-0.1926,-0.1989,-0.2052,-0.2095,-0.2153,-0.2194,-0.2192,-0.2198,-0.2185,-0.2167,-0.2163,-0.2183,-0.2147,-0.2145,-0.2141,-0.2175,-0.2021,-0.2008,-0.2166,-0.2166,-0.2166,-0.218,0,-0.1671,-0.1742,-0.1789,-0.1864,-0.1904,-0.197,-0.2026,-0.209,-0.2145,-0.2205,-0.2206,-0.2235,-0.2215,-0.2224,-0.2217,-0.2188,-0.2187,-0.2183,-0.214,-0.2139,-0.1984,-0.2003,-0.2166,-0.2181,-0.2181,-0.2181,-0.2181,0,-0.1673,-0.1724,-0.1793,-0.189,-0.1915,-0.1969,-0.2062,-0.2121,-0.2199,-0.2239,-0.227,-0.2282,-0.2288,-0.2266,-0.2241,-0.2247,-0.2219,-0.2197,-0.2196,-0.2023,-0.1984,-0.2118,-0.2183,-0.2183,-0.2183,-0.2183,-0.2182,0,-0.1619,-0.1722,-0.1778,-0.1813,-0.1929,-0.1976,-0.2041,-0.213,-0.2178,-0.2261,-0.2297,-0.2315,-0.2324,-0.2298,-0.2265,-0.226,-0.2239,-0.2215,-0.2054,-0.2045,-0.2152,-0.2148,-0.219,-0.219,-0.219,-0.219,-0.219,0,-0.1591,-0.1642,-0.1766,-0.1797,-0.1872,-0.1962,-0.2041,-0.211,-0.2196,-0.2234,-0.2307,-0.2316,-0.2333,-0.2327,-0.2288,-0.2171,-0.2252,-0.2053,-0.2025,-0.2185,-0.2184,-0.2155,-0.215,-0.219,-0.219,-0.219,-0.219,0,-0.1517,-0.1601,-0.1678,-0.1807,-0.185,-0.1906,-0.2033,-0.2075,-0.2179,-0.2228,-0.2253,-0.2324,-0.2295,-0.2302,-0.2261,-0.2173,-0.2096,-0.2037,-0.2236,-0.222,-0.1915,-0.1914,-0.1847,-0.1841,-0.1837,-0.1833,-0.1829,0,-0.1482,-0.1515,-0.1664,-0.1705,-0.1766,-0.1863,-0.1914,-0.2043,-0.2076,-0.2199,-0.2193,-0.223,-0.2248,-0.2084,-0.2101,-0.202,-0.1981,-0.1953,-0.19,-0.1894,-0.1874,-0.1881,-0.1887,-0.1822,-0.182,-0.1819,-0.1818,0,-0.1404,-0.1473,-0.1529,-0.1619,-0.1687,-0.1761,-0.1844,-0.1859,-0.1985,-0.2094,-0.2065,-0.2039,-0.2008,-0.1961,-0.1919,-0.1858,-0.1974,-0.1902,-0.1911,-0.1861,-0.1862,-0.1849,-0.186,-0.1801,-0.1804,-0.1805,-0.1806,0,-0.1338,-0.1361,-0.1443,-0.1503,-0.1588,-0.1624,-0.1697,-0.1722,-0.1776,-0.1904,-0.1883,-0.1922,-0.1986,-0.1876,-0.1834,-0.1763,-0.1712,-0.1647,-0.1669,-0.1687,-0.162,-0.1598,-0.1419,0,0,0,0,0,-0.1263,-0.127,-0.1317,-0.1384,-0.1459,-0.1509,-0.1623,-0.1694,-0.1815,-0.1736,-0.1805,-0.1762,-0.1689,-0.1713,-0.1594,-0.1742,-0.1722,-0.1597,-0.1662,-0.171,-0.1729,-0.166,0,0,0,0,0,0,-0.1212,-0.1252,-0.1271,-0.1258,-0.1273,-0.1348,-0.1416,-0.1507,-0.1476,-0.1596,-0.156,-0.1637,-0.1588,-0.1712,-0.1548,-0.1551,-0.1551,-0.162,-0.1615,-0.1699,-0.1716,-0.1732,-0.1667,0,0,0,0,0]},{"header":{"parameterUnit":"m.s-1","parameterCategory":2,"la1":30.2991,"la2":30.254,"lo1":-89.0895,"lo2":-89.0444,"dy":0.0017,"dx":0.0017,"nx":28,"ny":28,"refTime":"2024-08-19T09:00:00:Z","depth":"4","parameterNumber":3,"parameterNumberName":"V-component_of_CURRENTS"},"data":[0,0,0,0,0,0,0,0,0,0,0,0,0,0,0,0,0,0,0,0,0,0,0,0,0,0,0,0,0,0,0,0,0,0,0,0,0,0,0,0,0,0,0,0,0,0,0,0,0,0,0,0,0,0,0,0,0,0,-0.0115,-0.0114,0,-0.0079,-0.0079,-0.0078,-0.0037,-0.0036,-0.0035,-0.0035,0.0026,0.0027,0.0028,0,0,0,0,0,0,0,0,0,0,0,0,0,-0.0123,-0.0123,-0.0115,-0.0114,-0.0114,-0.0079,-0.0079,-0.0078,-0.0037,-0.0036,-0.0035,-0.0034,0.0026,0.0027,0.0028,0,0,0,0,0,0,0,0,0,0,0,0,0,-0.0107,-0.0123,-0.0115,-0.0088,-0.0086,-0.0079,-0.0079,-0.0078,-0.0037,-0.0036,-0.0035,-0.0034,0.0026,0.0027,0.0029,0.0017,0,0,0.0033,0.0034,0,0,0,0,0,0,0,0,-0.0108,-0.0107,-0.0093,-0.009,-0.0087,-0.0061,-0.0059,-0.0045,-0.0037,-0.0056,-0.0035,-0.0033,-0.0001,0.0003,0.0006,0.002,0.0023,0.0033,0.0034,0.0035,0.0035,0,0,0,0,0,0,0,-0.0109,-0.0108,-0.0101,-0.0092,-0.0089,-0.007,-0.0067,-0.0056,-0.0034,-0.0054,-0.0051,-0.0047,0.0001,0.0005,0.0008,0.0024,0.0033,0.0035,0.0035,0.0036,0.0042,0.0041,0,0,0,0,0,0,-0.0115,-0.0109,-0.0102,-0.01,-0.0095,-0.0071,-0.0068,-0.0071,-0.0035,-0.0029,-0.0048,-0.0045,0.0002,0.0006,0.001,0.001,0.0035,0.0036,0.0037,0.0042,0.0042,0.0041,0,0,0,0,0,0,-0.0116,-0.0115,-0.0104,-0.0103,-0.01,-0.0072,-0.0076,-0.0071,-0.0062,-0.003,-0.0023,-0.0044,0.0003,0.0008,0.002,0.0013,0.0037,0.0038,0.0043,0.0042,0.0041,0.0003,0,0,0,0,0,0,-0.0116,-0.0116,-0.012,-0.0104,-0.01,-0.0108,-0.0077,-0.0071,-0.0061,-0.0057,-0.0025,-0.0019,0.0004,0.0018,0.0021,0.0015,0.0039,0.0044,0.0043,0.0042,0.0005,0.0001,-0.0003,0,0,0,0,0,-0.0117,-0.0133,-0.0121,-0.012,-0.0107,-0.0109,-0.0106,-0.0082,-0.0062,-0.0069,-0.0042,-0.0019,0.0012,0.0018,0.0023,0.0017,0.0045,0.0043,0.0042,0.0007,0.0002,-0.0003,0,0,0,0,0,0,-0.0142,-0.013,-0.0116,-0.0128,-0.012,-0.0102,-0.0105,-0.0086,-0.0071,-0.0064,-0.0028,-0.0021,-0.0017,0.0002,0.0009,0.0013,0.0031,0.003,0.0003,-0.0002,-0.0006,-0.0002,0.0041,0,0,0,0,0,-0.0149,-0.0156,-0.0141,-0.0151,-0.0149,-0.0127,-0.0122,-0.0108,-0.0091,-0.0083,-0.0061,-0.0037,-0.0023,-0.0009,-0.0,0.0006,0.0049,0.0004,-0.0,-0.0004,0.0001,0.0067,0.007,0.0035,0.0035,0.0035,0,0,-0.0161,-0.0155,-0.0159,-0.0156,-0.0147,-0.0157,-0.0122,-0.0124,-0.0125,-0.008,-0.0078,-0.0057,-0.0028,-0.0024,-0.002,-0.0004,0.0025,-0.0006,-0.0009,-0.0002,0.0066,0.007,0.0073,0.0034,0.0034,0.0035,0,0,-0.0196,-0.0185,-0.0204,-0.0202,-0.0194,-0.0181,-0.0183,-0.0169,-0.0154,-0.0152,-0.0118,-0.0095,-0.0083,-0.0051,-0.0035,-0.0056,-0.0006,-0.0063,-0.0069,-0.0006,-0.0002,0.0003,0.0053,0.0062,-0.0055,-0.0055,-0.0056,0,-0.021,-0.0228,-0.021,-0.0228,-0.0229,-0.0195,-0.0216,-0.0201,-0.0183,-0.0167,-0.016,-0.0115,-0.0092,-0.0059,-0.0069,-0.0063,-0.0024,-0.0051,-0.0009,-0.0004,0.0002,0.0053,0.0063,-0.0057,-0.0057,-0.0057,-0.0057,0,-0.0257,-0.027,-0.0283,-0.0291,-0.0292,-0.0305,-0.0283,-0.0275,-0.0253,-0.0228,-0.02,-0.0161,-0.0127,-0.012,-0.0101,-0.0059,-0.0043,-0.0027,0.0009,0.0003,0.0056,0.0068,-0.006,-0.006,-0.0059,-0.0059,0,0,-0.0294,-0.0311,-0.0317,-0.0329,-0.0324,-0.0333,-0.033,-0.0313,-0.03,-0.0269,-0.0243,-0.0208,-0.0171,-0.015,-0.0114,-0.0055,0.0008,-0.003,-0.0026,0.0027,0.0144,0.0114,0.0125,0.0035,0.0037,0.0038,0.0164,0,-0.0334,-0.0384,-0.0377,-0.0415,-0.0435,-0.0403,-0.0406,-0.0382,-0.0346,-0.0314,-0.0243,-0.0218,-0.0186,-0.0169,-0.0104,-0.0024,0.0038,-0.0028,0.0135,0.0139,0.0121,0.0137,0.0044,0.0173,0.0176,0.0178,0.0179,0,-0.0381,-0.0407,-0.0456,-0.0472,-0.0478,-0.0495,-0.0477,-0.0471,-0.0407,-0.0378,-0.0314,-0.0262,-0.0177,-0.0154,0.0007,-0.0037,0.0047,0.0117,0.0124,0.0121,0.0132,0.0182,0.0201,0.02,0.0198,0.0196,0.0195,0,-0.0419,-0.0459,-0.05,-0.0508,-0.0523,-0.0532,-0.0533,-0.0491,-0.0483,-0.0407,-0.0387,-0.0276,-0.0225,-0.0097,0.0036,0.0028,0.0216,0.0227,0.0285,0.0284,0.0291,0.0285,0.0347,0.0347,0.0347,0.0346,0.0346,0,-0.0458,-0.0492,-0.0524,-0.0547,-0.0594,-0.0581,-0.0601,-0.0578,-0.0538,-0.0518,-0.0422,-0.0374,-0.0207,-0.0085,0.004,0.0195,0.0225,0.0291,0.0319,0.0268,0.0259,0.0299,0.0292,0.0351,0.035,0.0349,0.0348,0,-0.049,-0.051,-0.0562,-0.0598,-0.0615,-0.0647,-0.0668,-0.067,-0.0625,-0.059,-0.0571,-0.0438,-0.0277,-0.0113,0.01,0.0188,0.0344,0.0391,0.0318,0.0339,0.037,0.0359,0.0476,0.0477,0.0477,0.0477,0.0477,0,-0.0509,-0.0541,-0.0611,-0.0651,-0.0672,-0.0714,-0.074,-0.0721,-0.071,-0.0621,-0.06,-0.0454,-0.0349,-0.0059,0.0102,0.0338,0.0363,0.044,0.0413,0.037,0.0386,0.0375,0.0364,0.0477,0.0477,0.0477,0.0477,0,-0.0543,-0.0573,-0.0617,-0.0705,-0.0753,-0.0798,-0.0822,-0.0822,-0.0772,-0.074,-0.0602,-0.0447,-0.0271,-0.0057,0.0114,0.0284,0.039,0.0442,0.0443,0.0418,0.0372,0.0386,0.0375,0.0477,0.0477,0.0477,0.0477,0,-0.0566,-0.061,-0.0676,-0.0746,-0.0816,-0.0853,-0.0861,-0.0826,-0.0807,-0.0694,-0.0646,-0.0442,-0.0321,-0.0085,0.0081,0.0232,0.027,0.0319,0.0327,0.0328,0.0235,0.0153,0.0224,0,0,0,0,0,-0.0583,-0.0636,-0.0711,-0.0787,-0.0856,-0.089,-0.0903,-0.089,-0.0838,-0.0745,-0.0691,-0.0517,-0.0251,-0.013,0.0018,0.0058,0.0271,0.0234,0.0325,0.0479,0.0479,0.0391,0,0,0,0,0,0,-0.0595,-0.0672,-0.0713,-0.0804,-0.0859,-0.0923,-0.0928,-0.0892,-0.0822,-0.0746,-0.0599,-0.0501,-0.0246,-0.0344,0.0012,0.0058,0.0133,0.0363,0.0366,0.0479,0.0479,0.0479,0.0388,0,0,0,0,0]}]]